sat.trackr.live / text

‹ back to catalog

STARLINK-5226

NORAD 54056 · 2022-136F

PAYLOAD ACTIVE UNKNOWN

§ Identity

Operator
Country
US
Launch date
2022-10-20
Launch site
AFETR
Launch vehicle
Mass (kg)
RCS (m²)

Purposes: comms

External: N2YO · Heavens-Above · Gunter

§ Orbital elements

Epoch: 2026-09-20T11:16:09.667776Z

Period
93.79 min
Inclination
53.1612°
Eccentricity
0.0001530
Mean motion
15.35401611 rev/d
Perigee alt
458.7 km
Apogee alt
460.8 km
Semi-major
6,837.9 km
B*
2.1763e-5
RAAN
179.6253°
Arg perigee
84.7428°
Mean anomaly
275.3750°
Rev number
21,638

§ Raw data

STARLINK-52261 54056U 22136F   26263.46955634  .00000379  00000+0  21763-4 0  99962 54056  53.1612 179.6253 0001530  84.7428 275.3750 15.35401611216381

JSON: /api/v1/satellites/54056 · /tle

For live sub-satellite position, see the globe view (requires WebGL).

§ Visibility from observer

Set your observer location to see the next 7 days of passes ≥ 10°. The values pass through the URL so the page stays shareable.

No JS? Fill the form by hand. The geolocation button needs JavaScript.